Home   Weather   Haql   Past weeks

Flag for Saudi Arabia Past Weather in Haql, Saudi Arabia — Yesterday and Last 2 Weeks

Now
64 °F

Sunny.


Feels Like: 64 °F
Forecast: 61 / 88 °F
Wind: 21 mph from North

Location: Eilat

Current Time: Apr 25, 2017 at 8:01:15 am

Latest Report: Apr 25, 2017 at 6:50 am


Visibility: 10 mi

Pressure: 29.98 "Hg

Humidity: 52%

Dew Point: 46 °F

Location of HaqlLocation

Past Weather in Haql — Graph

°F

Haql Temperature Yesterday

Maximum temperature yesterday: 81 °F (at 3:50 pm)
Minimum temperature yesterday: 61 °F (at 5:30 am)
Average temperature yesterday: 72 °F

High & Low Weather Summary for the Past Weeks

 TemperatureHumidityPressure
High104 °F (Apr 21, 3:50 pm)78% (Apr 13, 8:50 pm)30.07 "Hg (Apr 13, 8:50 pm)
Low61 °F (Apr 15, 6:30 am)5% (Apr 21, 3:50 pm)29.62 "Hg (Apr 13, 2:50 pm)
Average81 °F30%29.88 "Hg
* Reported Apr 10 6:50 am — Apr 25 6:50 am, Haql, Weather by CustomWeather, © 2017

Note: Actual official high and low records may vary slightly from our data, if they occured in-between our weather recording intervals... More about our weather records

Advertising

Haql Weather History for the Previous 24 Hours

Scroll right to see more
 ConditionsComfort  
Time TempWeatherWind HumidityBarometerVisibility
6:50 am
Tue, Apr 25
64 °FSunny.21 mph52%29.98 "Hg10 mi
5:50 am63 °FClear.22 mph56%29.98 "Hg10 mi
5:30 am64 °FClear.22 mph52%29.98 "Hg10 mi
9:50 pm
Mon, Apr 24
73 °FClear.21 mph36%29.98 "Hg10 mi
8:50 pm75 °FClear.23 mph31%29.95 "Hg10 mi
7:50 pm77 °FClear.21 mph26%29.95 "Hg10 mi
6:50 pm79 °FSunny.23 mph24%29.92 "Hg10 mi
5:50 pm79 °FSunny.22 mph24%29.92 "Hg10 mi
4:50 pm81 °FSunny.24 mph20%29.92 "Hg10 mi
3:50 pm81 °FSunny.23 mph21%29.92 "Hg10 mi
2:50 pm79 °FSunny.23 mph23%29.95 "Hg10 mi
1:50 pm79 °FSunny.22 mph23%29.98 "Hg10 mi
12:50 pm75 °FSunny.23 mph27%30.01 "Hg10 mi
11:50 am73 °FSunny.23 mph29%30.04 "Hg10 mi
10:50 am70 °FSunny.23 mph33%30.07 "Hg10 mi
9:50 am68 °FSunny.21 mph38%30.07 "Hg10 mi
8:50 am66 °FSunny.23 mph40%30.07 "Hg10 mi
Weather by CustomWeather, © 2017

See weather overviewHow to use our weather pages